Погода Ермаковское

Погода Ермаковское : погода сейчас, прогноз погоды и архив. Всё, что Вы хотите узнать о погоде Ермаковское!

Хотите узнать прогноз погоды Ермаковское? Тогда Вам сюда: Погода Ермаковское

Поиск расширенной информации на нашем сайте:

Другие новости

Новости СМИ2

Главная страница сайта

Новости сайта

03.07.2017

Напоминаем, что на нашем специализированном сайте Метеоцентр.Азия вы можете получить высокодетализированные автоматические прогнозы погоды по пунктам России, СНГ и мира в авиационном формате (включающие направление и скорость ветра, видимость, явления погоды, количество и форму облачности, нижнюю и верхнюю границу облачности).

Рекомендуем: минск-вильнюс расписание автобусов

Погода Ермаковское - сегодня

Время (UTC), дата Ветер
(°,м/с) 
Видим.   Явления Облачность Т
(°С)
Тd
(°С)
f(%) Тe
(°С)
Pmin
(гПа)
dP
(гПа)
Po
(мм)
O2
(г/м3)
Тmin Tmax R s Состояние
почвы
00 18.07.17 110 (В) 10 км  в посл. час ливневой дождь{туман}  8/6 600 м кучево-дожд., средняя 
[Cb cap|Ac cuf]
+14.3 +13.2 93 +21  1010.7  1.5  732  277  +11.2      влажная 
03 18.07.17 090 (В) 20000 м    10/10 1000 м 
[Sc]
+17.2 +14.2 83 +27  1011.2  0.8  732  275           
06 18.07.17 тихо ()   20000 м  {ливн. осадки}  8/3 1000 м средняя, верхняя 
[Sc diur, vesp|Ac trans|Ci fib]
+20 +14.9 72 +29  1009.9  -0.9  732  272           
09 18.07.17 080 (В) 20000 м    6/3 600 м кучево-дожд., средняя, верхняя 
[Cb cap|Ac cuf|Ci fib]
+24.7 +15.7 57 +35  1008  -1.2  731  267           
12 18.07.17 340 (С) 1{11}  20000 м  гроза без осадков{ливн. осадки}  8/5 600 м кучево-дожд., средняя, верхняя 
[Cb cap|Ac cuf|Cc]
+21.7 +14 62 +29  1009.2  0.8  731  270    +25.6  0.0     
15 18.07.17 180 (Ю) 20000 м  {гроза}  10/6 600 м кучево-дожд., средняя 
[Cb cap|Ac As]
+19.8 +11.9 60 +25  1009.9  0.3  732  273           
18 18.07.17 тихо ()   н/о  {гроза}  5/5 1000 м 
[Sc]
+15 +13.8 93 +22  1010.8  0.4  732  277           
21 18.07.17 130 (ЮВ) 10 км    4/3 1000 м средняя 
[Sc|Ac trans]
+12.8 +12.1 96 +19  1011.2  732  279           
00 19.07.17 тихо ()   20000 м    4/0 средняя, верхняя 
[Ac trans|Ci]
+14.4 +12.2 87 +19  1010.9  732  278  +11.5        сухая 
03 19.07.17 060 (СВ) 20000 м    8/0 верхняя 
[Ci sp]
+21.8 +13.3 58 +28  1008.7  -1.2  731  270           
06 19.07.17 070 (В) 20000 м    6/3 1000 м средняя, верхняя 
[Cu Sc|Ac cuf|Ci sp]
+25 +13.2 48 +31  1006.5  -1.8  730  267           
09 19.07.17 050 (СВ) 20000 м    6/3 1000 м средняя, верхняя 
[Cu Sc|Ac cuf|Ci sp]
+26.4 +9.9 35 +28  1003.8  -2.5  728  266           
12 19.07.17 280 (З) 7-11{21}  10 км  гроза, ливневой дождь  ?/? 1000 
[Cb cap]
+15.6 +13.5 87 +22  1008.5  3.3  730  276    +26.4  0.4     
15 19.07.17 тихо () {11}  10 км  {гроза, ливн. осадки}  9/9 600 м кучево-дожд. 
[Cb cap]
+14.4 +13.9 97 +22  1009.6  731  277           
18 19.07.17 тихо ()   н/о  туман{гроза, ливн. осадки}  8/8 600 м кучево-дожд. 
[Cb cap]
+12.2 +12 99 +17  1009.2  -0.7  731  279           
21 19.07.17 тихо ()   0200 м  туман  ?/?  
+11.8 +11.6 99 +16  1009.3  731  280           
00 20.07.17 тихо ()   0200 м  туман  5/4 1000 м средняя 
[Sc diur, vesp|Ac trans]
+12 +11.8 99 +16  1010.3  731  280  +11.2    11    влажная 
03 20.07.17 тихо ()   10 км  {туман}  10/10 600 м кучево-дожд. 
[Cb cap]
+14.8 +13.9 94 +22  1010.5  0.6  732  277           
06 20.07.17 260 (З) 5-10{10}  20000 м  {ливн. осадки, туман}  9/9 600 м кучево-дожд. 
[Cb cap]
+20.2 +12.4 61 +25  1010.3  0.4  732  272           
09 20.07.17 230 (ЮЗ) 2{11}  20000 м    9/9 600 м кучево-дожд. 
[Cb cap]
+21 +12.1 57 +26  1010.1  -0.1  732  272           
12 20.07.17 250 (З) 2{10}  20000 м    9/9 600 м кучево-дожд. 
[Cb cap]
+21.5 +12.1 55 +26  1010.2  0.1  732  271    +22.8  0.0     
15 20.07.17 270 (З) 10 км  слаб. ливневой дождь  9/9 600 м кучево-дожд. 
[Cb cap]
+18 +12.6 71 +24  1011.8  1.3  733  275           
18 20.07.17 тихо ()   н/о  слаб. ливневой дождь  9/9 600 м кучево-дожд. 
[Cb cap]
+15 +13.8 93 +22  1012.9  0.7  734  277           
21 20.07.17 тихо ()   н/о  {ливн. осадки}  8/8 1000 м 
[Sc]
+14.1 +13.2 94 +20  1013.2  0.2  734  278           
00 21.07.17 тихо ()   20000 м  {ливн. осадки}  8/8 1000 м 
[Sc]
+13.4 +12.7 96 +19  1014.1  0.6  734  279  +12.1    0.0    влажная 
Время (UTC), дата Ветер
(°,м/с) 
Видим.   Явления Облачность Т
(°С)
Тd
(°С)
f(%) Тe
(°С)
Pmin
(гПа)
dP
(гПа)
Po
(мм)
O2
(г/м3)
Тmin Tmax R s Состояние
почвы

Для получения пояснительной информации подведите курсор к названию столбца.

ПОГОДА Ермаковское - архив

Всё, что Вы хотите узнать о погоде Ермаковское - удобно и подробно!

Выберите нужную дату (начиная с 1 января 2015* года) и нажмите кнопку "Найти".
Будут отображены архивные сводки погоды по пункту Ермаковское, начиная с указанной даты.


Отображать данные в формате CSV (для использования в таблицах Excel)


Внимание! Наш архив погоды предназначен исключительно для личного некоммерческого использования в познавательных целях. Если Вам необходимы официальные справки о состоянии погоды (для производственных, юридических, коммерческих и т.п. целей), обращайтесь в органы Росгидромета.

*Примечание: данная дата относится к архиву по метеостанциям СССР (Россия, СНГ, Балтия).
Архив по метеостанциям Зарубежной Европы и Азии (кроме Китая) хранится 10 дней, по другим регионам земного шара (Китай, Африка, Америка, Австралия, Океания) - 1 день.

Ермаковское - район местоположения метеостанции


Название, широта, долгота, высота метеостанции:
Ермаковское 53.3°ш. 92.4°д. 298 м над ур. моря [Российская Федерация]

Дополнительная информация

В oтличие oт бoльшинства пoгoдных сайтoв мы публикуем пoдрoбную метеoинфoрмацию в детальнoм прoфессиoнальнoм фoрмате.

Характеристики температуры и влажнoсти вoздуха измеряются на высoте 2 м в тени вдали oт зданий и деревьев.
Скoрoсть ветра измеряется на высoте 10 м (на урoвне рoста челoвека скoрoсть ветра ниже в 1.5-2 раза). Если метеoстанция нахoдится в гoрoде или в лесу, тo скoрoсть ветра занижена на 2-4 м/с пo сравнению с oткрытым местoм. Скoрoсть ветра над акватoриями крупных рек и oзёр, а также на вершинах хoлмoв на 2-5 м/с выше, чем в oбычных услoвиях.
Атмoсфернoе давление в разных тoчках местнoсти мoжет значительнo oтличаться oт давления на метеoстанции, в зависимoсти oт услoвий рельефа (при пoдъёме на 10 м давление пoнижается примернo на 1 мм рт.ст.).